Location: Condor
(52.3263°N, 114.5541°W)
Time: 09:43:12
(UTC+00:00)

SO-50 - Pass Details

Date: 05 December 2023
Orbit: 608 x 660 km, 64.6° (Epoch: 04 March)

Event Time Altitude Azimuth Distance (km) Brightness Sun altitude
Exits shadow 13:03:31 35° 340° (NNW) 1,050 ? -21.3°
Drops below altitude 10° 13:07:24 10° 35° (NE) 2,041 ? -20.7°
Sets 13:09:51 0° 45° (NE) 2,943 ? -20.4°
